When you browse on this site, cookies collect data to enhance your experience and personalize the content and advertising you see.
Visit our Privacy Policy to learn more. By continuing to use the site, you agree to this use of cookies and data.
  • In Switzerland
  • List of Countries
  • For 7 days
  • Water Temperature
  • Satellite Maps
  • Weather Map
  • Weather Widgets
  • user-avatar
    Login

    Hourly Weather Kryuchok

    Today, 25 June, Tuesday

    Time Temperature Precipitation Wind Pressure Humidity
    00:00 +16°C° 0 mm 3 mps 752 mmHg 79%
    01:00 +16°C° 0 mm 3 mps 752 mmHg 79%
    02:00 +15°C° 0 mm 2 mps 752 mmHg 79%
    03:00 +15°C° 0 mm 2 mps 753 mmHg 78%
    04:00 +15°C° 0 mm 2 mps 753 mmHg 79%
    05:00 +14°C° 0 mm 3 mps 753 mmHg 80%
    06:00 +14°C° 0 mm 3 mps 754 mmHg 81%
    07:00 +17°C° 0 mm 3 mps 754 mmHg 76%
    08:00 +18°C° 0 mm 4 mps 754 mmHg 70%
    09:00 +20°C° 0 mm 4 mps 755 mmHg 66%
    10:00 +20°C° 0 mm 4 mps 755 mmHg 63%
    11:00 +21°C° 0 mm 4 mps 755 mmHg 59%
    12:00 +22°C° 0 mm 4 mps 755 mmHg 55%
    13:00 +22°C° 0 mm 4 mps 755 mmHg 56%
    14:00 +22°C° 0 mm 4 mps 755 mmHg 57%
    15:00 +22°C° 0 mm 5 mps 755 mmHg 57%
    16:00 +22°C° 0 mm 4 mps 755 mmHg 60%
    17:00 +21°C° 0 mm 4 mps 754 mmHg 63%
    18:00 +21°C° 0 mm 3 mps 754 mmHg 66%
    19:00 +19°C° 0 mm 3 mps 754 mmHg 68%
    20:00 +17°C° 0 mm 2 mps 755 mmHg 69%
    21:00 +16°C° 0 mm 2 mps 755 mmHg 71%
    22:00 +15°C° 0 mm 2 mps 755 mmHg 72%
    23:00 +15°C° 0 mm 1 mps 755 mmHg 72%

    Tomorrow, 26 June, Wednesday

    Time Temperature Precipitation Wind Pressure Humidity
    00:00 +14°C° 0 mm 1 mps 754 mmHg 73%
    01:00 +14°C° 0 mm 1 mps 755 mmHg 73%
    02:00 +13°C° 0 mm 1 mps 755 mmHg 73%
    03:00 +13°C° 0 mm 1 mps 755 mmHg 74%
    04:00 +14°C° 0 mm 1 mps 755 mmHg 76%
    05:00 +14°C° 0 mm 1 mps 755 mmHg 77%
    06:00 +15°C° 0 mm 1 mps 754 mmHg 79%
    07:00 +16°C° 0 mm 2 mps 754 mmHg 75%
    08:00 +18°C° 0 mm 2 mps 754 mmHg 70%
    09:00 +19°C° 0 mm 2 mps 754 mmHg 66%
    10:00 +20°C° 0 mm 2 mps 754 mmHg 61%
    11:00 +21°C° 0 mm 2 mps 754 mmHg 57%
    12:00 +23°C° 0 mm 2 mps 753 mmHg 52%
    13:00 +23°C° 0 mm 2 mps 753 mmHg 53%
    14:00 +22°C° 0 mm 3 mps 753 mmHg 54%
    15:00 +24°C° 0 mm 3 mps 752 mmHg 55%
    16:00 +23°C° 0.2 mm 2 mps 752 mmHg 62%
    17:00 +21°C° 0.2 mm 2 mps 751 mmHg 69%
    18:00 +22°C° 0.2 mm 1 mps 750 mmHg 76%
    19:00 +20°C° 0 mm 1 mps 750 mmHg 77%
    20:00 +19°C° 0 mm 1 mps 750 mmHg 79%
    21:00 +18°C° 0 mm 1 mps 749 mmHg 81%
    22:00 +17°C° 0 mm 2 mps 749 mmHg 84%
    23:00 +17°C° 0 mm 2 mps 748 mmHg 86%

    Day after tomorrow, 27 June, Thursday

    Time Temperature Precipitation Wind Pressure Humidity
    00:00 +16°C° 0 mm 2 mps 748 mmHg 89%
    01:00 +16°C° 0 mm 3 mps 747 mmHg 90%
    02:00 +16°C° 0 mm 3 mps 746 mmHg 90%
    03:00 +14°C° 0 mm 3 mps 746 mmHg 91%
    04:00 +15°C° 0.3 mm 4 mps 745 mmHg 91%
    05:00 +15°C° 0.3 mm 4 mps 744 mmHg 91%
    06:00 +15°C° 0.3 mm 4 mps 743 mmHg 91%
    07:00 +15°C° 2.8 mm 5 mps 742 mmHg 93%
    08:00 +16°C° 2.8 mm 6 mps 741 mmHg 94%
    09:00 +16°C° 2.8 mm 7 mps 741 mmHg 96%
    10:00 +17°C° 1.2 mm 6 mps 740 mmHg 95%
    11:00 +17°C° 1.2 mm 6 mps 739 mmHg 94%
    12:00 +19°C° 1.2 mm 6 mps 738 mmHg 94%
    13:00 +19°C° 2 mm 6 mps 738 mmHg 93%
    14:00 +20°C° 2 mm 7 mps 737 mmHg 93%
    15:00 +20°C° 2 mm 7 mps 737 mmHg 93%
    16:00 +20°C° 0.3 mm 7 mps 736 mmHg 92%
    17:00 +21°C° 0.3 mm 7 mps 735 mmHg 90%
    18:00 +21°C° 0.3 mm 6 mps 734 mmHg 89%
    19:00 +21°C° 0.9 mm 6 mps 734 mmHg 90%
    20:00 +20°C° 0.9 mm 6 mps 733 mmHg 92%
    21:00 +20°C° 0.9 mm 6 mps 732 mmHg 94%
    22:00 +19°C° 3.8 mm 5 mps 731 mmHg 94%
    23:00 +19°C° 3.8 mm 3 mps 731 mmHg 95%

    28 June, Friday

    Time Temperature Precipitation Wind Pressure Humidity
    00:00 +19°C° 3.8 mm 2 mps 730 mmHg 95%
    01:00 +18°C° 0.1 mm 3 mps 730 mmHg 95%
    02:00 +18°C° 0.1 mm 4 mps 730 mmHg 96%
    03:00 +17°C° 0.1 mm 5 mps 729 mmHg 96%
    04:00 +16°C° 0 mm 6 mps 729 mmHg 95%
    05:00 +16°C° 0 mm 6 mps 729 mmHg 94%
    06:00 +15°C° 0 mm 6 mps 729 mmHg 93%
    07:00 +15°C° 0 mm 6 mps 729 mmHg 90%
    08:00 +16°C° 0 mm 6 mps 729 mmHg 87%
    09:00 +16°C° 0 mm 7 mps 729 mmHg 84%
    10:00 +16°C° 0.1 mm 7 mps 729 mmHg 84%
    11:00 +15°C° 0.1 mm 7 mps 729 mmHg 84%
    12:00 +15°C° 0.1 mm 7 mps 728 mmHg 84%
    13:00 +16°C° 0.1 mm 7 mps 728 mmHg 82%
    14:00 +16°C° 0.1 mm 7 mps 728 mmHg 81%
    15:00 +16°C° 0.1 mm 7 mps 728 mmHg 79%
    16:00 +16°C° 0.5 mm 6 mps 728 mmHg 83%
    17:00 +15°C° 0.5 mm 6 mps 728 mmHg 87%
    18:00 +14°C° 0.5 mm 6 mps 728 mmHg 91%
    19:00 +14°C° 0.1 mm 6 mps 728 mmHg 92%
    20:00 +13°C° 0.1 mm 5 mps 728 mmHg 93%
    21:00 +13°C° 0.1 mm 5 mps 728 mmHg 93%
    22:00 +12°C° 0.1 mm 5 mps 728 mmHg 94%
    23:00 +12°C° 0.1 mm 5 mps 728 mmHg 94%

    29 June, Saturday

    Time Temperature Precipitation Wind Pressure Humidity
    00:00 +10°C° 0.1 mm 5 mps 728 mmHg 94%
    01:00 +10°C° 0.6 mm 5 mps 728 mmHg 95%
    02:00 +10°C° 0.6 mm 6 mps 729 mmHg 95%
    03:00 +10°C° 0.6 mm 6 mps 729 mmHg 95%
    04:00 +10°C° 0.3 mm 6 mps 729 mmHg 95%
    05:00 +10°C° 0.3 mm 6 mps 729 mmHg 95%
    06:00 +10°C° 0.3 mm 5 mps 730 mmHg 95%
    07:00 +10°C° 0.3 mm 6 mps 730 mmHg 95%
    08:00 +10°C° 0.3 mm 6 mps 731 mmHg 94%
    09:00 +10°C° 0.3 mm 7 mps 731 mmHg 94%
    10:00 +10°C° 0.3 mm 6 mps 732 mmHg 93%
    11:00 +10°C° 0.3 mm 6 mps 733 mmHg 93%
    12:00 +10°C° 0.3 mm 6 mps 734 mmHg 92%
    13:00 +10°C° 0.2 mm 6 mps 734 mmHg 92%
    14:00 +10°C° 0.2 mm 6 mps 735 mmHg 92%
    15:00 +10°C° 0.2 mm 6 mps 736 mmHg 92%
    16:00 +10°C° 0 mm 6 mps 736 mmHg 90%
    17:00 +10°C° 0 mm 5 mps 736 mmHg 88%
    18:00 +10°C° 0 mm 5 mps 737 mmHg 87%
    19:00 +11°C° 0 mm 4 mps 737 mmHg 85%
    20:00 +10°C° 0 mm 4 mps 738 mmHg 83%
    21:00 +10°C° 0 mm 3 mps 738 mmHg 82%
    22:00 +10°C° 0 mm 3 mps 738 mmHg 84%
    23:00 +9°C° 0 mm 3 mps 738 mmHg 86%

    30 June, Sunday

    Time Temperature Precipitation Wind Pressure Humidity
    00:00 +9°C° 0 mm 3 mps 738 mmHg 88%
    01:00 +9°C° 0 mm 3 mps 738 mmHg 86%
    02:00 +9°C° 0 mm 3 mps 739 mmHg 84%
    03:00 +9°C° 0 mm 3 mps 739 mmHg 83%
    04:00 +9°C° 0 mm 3 mps 739 mmHg 83%
    05:00 +9°C° 0 mm 3 mps 739 mmHg 84%
    06:00 +10°C° 0 mm 3 mps 739 mmHg 84%
    07:00 +10°C° 0 mm 3 mps 740 mmHg 82%
    08:00 +11°C° 0 mm 3 mps 740 mmHg 80%
    09:00 +12°C° 0 mm 3 mps 740 mmHg 78%
    10:00 +13°C° 0 mm 3 mps 740 mmHg 73%
    11:00 +14°C° 0 mm 4 mps 741 mmHg 67%
    12:00 +17°C° 0 mm 4 mps 741 mmHg 62%
    13:00 +17°C° 0.1 mm 4 mps 741 mmHg 61%
    14:00 +18°C° 0.1 mm 4 mps 741 mmHg 60%
    15:00 +18°C° 0.1 mm 4 mps 741 mmHg 59%
    16:00 +18°C° 0.1 mm 3 mps 741 mmHg 62%
    17:00 +18°C° 0.1 mm 3 mps 741 mmHg 64%
    18:00 +18°C° 0.1 mm 3 mps 741 mmHg 67%
    19:00 +16°C° 0 mm 2 mps 742 mmHg 70%
    20:00 +15°C° 0 mm 2 mps 742 mmHg 73%
    21:00 +13°C° 0 mm 2 mps 742 mmHg 77%
    22:00 +13°C° 0 mm 2 mps 742 mmHg 77%
    23:00 +12°C° 0 mm 2 mps 742 mmHg 76%
    Show more